Location: Torch Lake Township
(45.0753°N, 85.3586°W)
Time: 02:50:35
(UTC-04:00)

Amateur Radio Satellites - All Passes

Search period start: 24 September 2017 02:20
Search period end: 25 September 2017 02:20
Location: Torch Lake Township, 45.0753°N, 85.3586°W

Satellite Date Start Highest point End Downlink Frequencies (MHz)
Time Altitude Azimuth
QB50P2 24 Sep 02:24:52 02:28:45 34° 291° (WNW) 02:32:38 145.880/145.840
SPROUT 24 Sep 02:26:10 02:28:56 17° 269° (W) 02:31:44 437.525
BUGSAT 1 24 Sep 02:26:42 02:30:48 50° 100° (E) 02:34:55 437.445
ISS 24 Sep 02:27:15 02:30:20 36° 17° (NNE) 02:33:26 437.550
VELOX 1 24 Sep 02:28:23 02:31:48 22° 266° (W) 02:35:14 145.980
50 SAT 24 Sep 02:36:31 02:39:35 35° 262° (W) 02:42:39 437.505
PCSat 24 Sep 02:38:25 02:40:20 12° 258° (WSW) 02:42:16 145.827
O/OREOS (USA 219) 24 Sep 02:46:58 02:50:44 27° 104° (ESE) 02:54:33 437.305
BEESAT 24 Sep 02:49:58 02:53:16 19° 61° (ENE) 02:56:34 436.000
NANOSAT C BR1 24 Sep 03:00:39 03:03:43 19° 296° (WNW) 03:06:47 145.865
nSIGHT-1 24 Sep 03:06:09 03:09:23 62° 26° (NNE) 03:12:37 .
MOZHAYETS 4 24 Sep 03:17:40 03:21:41 30° 67° (ENE) 03:25:44
YUBILEINY 24 Sep 03:24:14 03:24:38 10° 291° (WNW) 03:25:01 435.215
UKube-1 24 Sep 03:28:10 03:31:49 27° 264° (W) 03:35:29 .
DUCHIFAT 1 24 Sep 03:30:09 03:31:45 12° 300° (WNW) 03:33:22 145.980
Tancredo 1 24 Sep 03:30:44 03:32:07 13° 225° (SW) 03:33:30 437.200
Gurwin Techsat 1B 24 Sep 03:35:48 03:41:08 72° 103° (ESE) 03:46:27 435.225
DX 1 24 Sep 03:37:11 03:39:44 15° 269° (W) 03:42:17 434.975-435.025
CUBESAT XI-V 24 Sep 03:46:37 03:49:11 15° 60° (ENE) 03:51:46 437.345
BEESAT 3 24 Sep 03:48:08 03:50:45 17° 37° (NE) 03:53:21 437.485
Oscar 19 24 Sep 03:48:22 03:53:29 62° 288° (WNW) 03:58:32 437.125/150
ITUPSAT 1 24 Sep 03:49:24 03:54:07 63° 72° (ENE) 03:58:52 437.325
M-CUBED/EXP-1 PRIME 24 Sep 03:50:51 03:52:59 16° 301° (WNW) 03:55:06 437.505
BUGSAT 1 24 Sep 04:03:02 04:05:47 17° 297° (WNW) 04:08:33 437.445
ISS 24 Sep 04:03:42 04:06:55 50° 216° (SW) 04:10:07 437.550
RS-15 24 Sep 04:05:03 04:09:53 13° 92° (E) 04:14:41 29.354- 29.394
AO-85 24 Sep 04:24:17 04:27:11 17° 37° (NE) 04:30:12 145.980
O/OREOS (USA 219) 24 Sep 04:25:53 04:30:00 34° 302° (WNW) 04:34:12 437.305
BEESAT 24 Sep 04:25:55 04:30:36 57° 259° (W) 04:35:20 436.000
nSIGHT-1 24 Sep 04:42:57 04:45:28 21° 223° (SW) 04:48:01 .
AO-7 24 Sep 04:43:10 04:50:58 42° 99° (E) 04:58:42 .
ITAMSAT 1 24 Sep 04:54:01 04:58:54 39° 98° (E) 05:03:45 435.822/435.867
MOZHAYETS 4 24 Sep 04:54:40 04:58:46 31° 264° (W) 05:02:54
KKS-1 24 Sep 05:11:32 05:15:32 34° 68° (ENE) 05:19:32 437.445
Gurwin Techsat 1B 24 Sep 05:16:59 05:20:31 18° 301° (WNW) 05:24:01 435.225
CUBESAT XI-V 24 Sep 05:21:16 05:25:58 74° 258° (WSW) 05:30:41 437.345
BEESAT 3 24 Sep 05:24:48 05:28:48 75° 237° (WSW) 05:32:43 437.485
ITUPSAT 1 24 Sep 05:29:29 05:32:22 16° 270° (W) 05:35:15 437.325
BEESAT 2 24 Sep 05:33:03 05:36:59 45° 49° (NE) 05:40:51 435.950
STARS 24 Sep 05:35:05 05:38:41 26° 66° (ENE) 05:42:18 437.465
AO-85 24 Sep 06:03:41 06:08:07 88° 241° (WSW) 06:12:54 145.980
RS-15 24 Sep 06:07:40 06:19:32 60° 114° (ESE) 06:31:28 29.354- 29.394
DOVE 4 24 Sep 06:32:39 06:36:35 36° 98° (E) 06:40:39 437.250
ITAMSAT 1 24 Sep 06:33:44 06:38:13 30° 296° (WNW) 06:42:42 435.822/435.867
AO-7 24 Sep 06:35:57 06:43:49 49° 299° (WNW) 06:51:40 .
CUTE-I 24 Sep 06:46:43 06:49:37 15° 89° (E) 06:52:31 437.470
KKS-1 24 Sep 06:48:29 06:52:08 25° 265° (W) 06:55:47 437.445
STRAND 1 24 Sep 07:03:25 07:07:15 22° 61° (ENE) 07:11:06 437.568
STARS 24 Sep 07:10:58 07:14:53 33° 263° (W) 07:18:51 437.465
BEESAT 2 24 Sep 07:11:27 07:14:25 20° 247° (WSW) 07:17:21 435.950
XW-2D 24 Sep 07:16:59 07:20:22 29° 96° (E) 07:23:42 145.860 - 145.880
HO-68 24 Sep 07:26:36 07:30:42 16° 87° (E) 07:34:48 435.675
XW-2F 24 Sep 07:28:47 07:32:21 37° 98° (E) 07:35:51 145.980 - 146.000
XW-2B 24 Sep 07:29:11 07:32:48 39° 98° (E) 07:36:22 145.730 - 145.750
AO-85 24 Sep 07:46:25 07:47:58 12° 251° (WSW) 07:49:32 145.980
NUDT-PHONESAT 24 Sep 07:50:14 07:53:54 51° 100° (E) 07:57:31 437.300
XW-2C 24 Sep 07:50:26 07:54:16 74° 103° (ESE) 07:58:03 145.795 - 145.815
LilacSat-2 24 Sep 08:03:24 08:07:15 72° 284° (WNW) 08:11:02 437.200
SEEDS 24 Sep 08:08:50 08:11:13 15° 90° (E) 08:13:37 437.485
DOVE 4 24 Sep 08:10:48 08:14:07 23° 294° (WNW) 08:17:31 437.250
KAITUO 1B 24 Sep 08:19:37 08:23:21 66° 285° (WNW) 08:27:02 145.475/437.950
RS-15 24 Sep 08:20:22 08:32:23 54° 319° (NW) 08:44:21 29.354- 29.394
CUTE-I 24 Sep 08:24:56 08:30:17 79° 286° (WNW) 08:35:37 437.470
AAUSAT CUBESAT 2 24 Sep 08:30:49 08:32:01 11° 88° (E) 08:33:14 437.432
AO-7 24 Sep 08:31:02 08:34:38 14° 322° (NW) 08:38:14 .
CUTE 1.7 + AOD 2 24 Sep 08:36:41 08:40:48 47° 99° (E) 08:44:51 437.475
STRAND 1 24 Sep 08:41:05 08:46:03 54° 260° (W) 08:51:05 437.568
XW-2D 24 Sep 08:51:25 08:54:22 22° 293° (WNW) 08:57:20 145.860 - 145.880
XW-2F 24 Sep 09:03:35 09:06:11 18° 295° (WNW) 09:08:47 145.980 - 146.000
XW-2B 24 Sep 09:04:09 09:06:41 17° 295° (WNW) 09:09:11 145.730 - 145.750
CUBEBUG 2 24 Sep 09:11:34 09:16:16 65° 101° (E) 09:20:59 437.445
UNISAT 6 24 Sep 09:11:49 09:13:15 11° 58° (ENE) 09:14:42 437.425
HO-68 24 Sep 09:12:13 09:19:28 83° 106° (ESE) 09:26:41 435.675
FO-29 24 Sep 09:15:55 09:21:07 42° 69° (ENE) 09:26:02 435.910
UWE-3 24 Sep 09:17:21 09:21:50 44° 98° (E) 09:26:18 435.000/436.395/437.385
NUDT-PHONESAT 24 Sep 09:25:29 09:27:20 13° 297° (WNW) 09:29:12 437.300
XW-2C 24 Sep 09:27:16 09:27:51 10° 299° (WNW) 09:28:25 145.795 - 145.815
XW-2A 24 Sep 09:28:38 09:32:05 83° 103° (ESE) 09:35:30 145.665 - 145.685
TIGRISAT 24 Sep 09:33:41 09:36:32 17° 62° (ENE) 09:39:26 435.000
SEEDS 24 Sep 09:43:09 09:47:14 52° 287° (WNW) 09:51:16 437.485
PRISM 24 Sep 09:56:39 09:59:15 17° 63° (ENE) 10:01:50 437.425
Oscar 11 24 Sep 09:58:51 10:02:58 40° 98° (E) 10:07:02 .
AO-73 24 Sep 10:00:18 10:04:51 60° 100° (E) 10:09:21 145.935
ZACube-1 24 Sep 10:03:31 10:08:08 73° 102° (ESE) 10:12:41 437.345
AAUSAT CUBESAT 2 24 Sep 10:03:50 10:07:56 68° 286° (WNW) 10:12:00 437.432
CUTE-I 24 Sep 10:07:09 10:09:27 13° 305° (NW) 10:11:46 437.470
CUTE 1.7 + AOD 2 24 Sep 10:13:24 10:16:16 18° 296° (WNW) 10:19:08 437.475
RS-15 24 Sep 10:38:02 10:48:30 30° 351° (N) 10:58:44 29.354- 29.394
UNISAT 6 24 Sep 10:44:52 10:49:13 88° 263° (W) 10:53:43 437.425
Max Valier Satellite 24 Sep 10:47:20 10:50:18 22° 94° (E) 10:53:14 145.860
CUBEBUG 2 24 Sep 10:49:25 10:52:23 17° 298° (WNW) 10:55:21 437.445
UWE-3 24 Sep 10:54:23 10:58:00 23° 295° (WNW) 11:01:37 435.000/436.395/437.385
HO-68 24 Sep 11:01:04 11:06:24 23° 306° (NW) 11:11:44 435.675
FO-29 24 Sep 11:01:41 11:06:24 27° 265° (W) 11:10:52 435.910
TIGRISAT 24 Sep 11:08:31 11:12:46 54° 260° (W) 11:17:10 435.000
O/OREOS (USA 219) 24 Sep 11:16:47 11:18:25 12° 45° (NE) 11:20:04 437.305
DELFI C3 24 Sep 11:25:59 11:29:55 85° 103° (ESE) 11:33:49 145.870
POLYITAN 1 24 Sep 11:27:11 11:29:30 15° 61° (ENE) 11:31:51 437.675
PRISM 24 Sep 11:30:10 11:34:09 49° 260° (W) 11:38:08 437.425
EO-79 24 Sep 11:31:00 11:33:33 16° 62° (ENE) 11:36:06 145.935-145.965
AIST 2D 24 Sep 11:32:58 11:36:10 32° 71° (ENE) 11:39:23 435.315
Oscar 11 24 Sep 11:35:32 11:38:51 22° 295° (WNW) 11:42:08 .
AO-73 24 Sep 11:37:41 11:40:35 17° 298° (WNW) 11:43:29 145.935
ZACube-1 24 Sep 11:41:21 11:43:48 14° 299° (WNW) 11:46:16 437.345
QB50P2 24 Sep 11:43:57 11:47:17 23° 66° (ENE) 11:50:38 145.880/145.840
EO-88 24 Sep 11:45:54 11:49:35 83° 103° (ESE) 11:53:14 145.990 - 145.960
ESTCUBE 1 24 Sep 12:14:03 12:17:06 18° 91° (E) 12:20:07 437.505/2401.250
NANOSAT C BR1 24 Sep 12:17:52 12:21:48 41° 70° (ENE) 12:25:47 145.865
Max Valier Satellite 24 Sep 12:20:53 12:24:07 28° 291° (WNW) 12:27:20 145.860
YUBILEINY 24 Sep 12:28:50 12:36:31 37° 85° (E) 12:44:14 435.215
LO-87 24 Sep 12:39:46 12:43:16 46° 99° (E) 12:46:45 145.935 - 145.965
DUCHIFAT 1 24 Sep 12:45:37 12:49:46 73° 75° (ENE) 12:53:59 145.980
O/OREOS (USA 219) 24 Sep 12:54:04 12:58:41 74° 65° (ENE) 13:03:17 437.305
RS-15 24 Sep 12:54:27 13:05:33 38° 26° (NNE) 13:16:09 29.354- 29.394
POLYITAN 1 24 Sep 13:00:38 13:04:47 61° 259° (W) 13:09:01 437.675
M-CUBED/EXP-1 PRIME 24 Sep 13:02:15 13:06:28 69° 68° (ENE) 13:10:23 437.505
EO-79 24 Sep 13:04:45 13:08:52 55° 260° (W) 13:13:02 145.935-145.965
AIST 2D 24 Sep 13:07:02 13:09:26 17° 267° (W) 13:11:51 435.315
BUGSAT 1 24 Sep 13:18:04 13:21:53 43° 71° (ENE) 13:25:46 437.445
QB50P2 24 Sep 13:19:01 13:22:52 35° 263° (W) 13:26:48 145.880/145.840
Gurwin Techsat 1B 24 Sep 13:20:54 13:24:48 21° 60° (ENE) 13:28:41 435.225
Oscar 19 24 Sep 13:28:31 13:33:08 33° 66° (ENE) 13:37:46 437.125/150
NO-84 24 Sep 13:41:44 13:45:23 39° 136° (SE) 13:48:46 435.350 FM
ESTCUBE 1 24 Sep 13:49:49 13:54:11 50° 289° (WNW) 13:58:29 437.505/2401.250
NANOSAT C BR1 24 Sep 13:54:42 13:57:42 19° 268° (W) 14:00:44 145.865
AO-7 24 Sep 13:55:38 14:00:53 19° 44° (NE) 14:06:07 .
SPROUT 24 Sep 14:07:42 14:12:00 70° 102° (ESE) 14:16:16 437.525
LO-87 24 Sep 14:14:27 14:16:18 14° 296° (WNW) 14:18:09 145.935 - 145.965
VELOX 1 24 Sep 14:14:54 14:19:15 58° 101° (E) 14:23:34 145.980
YUBILEINY 24 Sep 14:24:34 14:33:00 53° 286° (WNW) 14:41:30 435.215
DUCHIFAT 1 24 Sep 14:24:54 14:25:57 11° 272° (W) 14:26:59 145.980
O/OREOS (USA 219) 24 Sep 14:35:30 14:37:27 13° 262° (W) 14:39:23 437.305
ITAMSAT 1 24 Sep 14:38:39 14:40:25 12° 54° (NE) 14:42:10 435.822/435.867
M-CUBED/EXP-1 PRIME 24 Sep 14:39:34 14:41:09 12° 263° (W) 14:42:43 437.505
SO-50 24 Sep 14:54:18 14:58:39 53° 121° (ESE) 15:03:03 436.795
BUGSAT 1 24 Sep 14:54:51 14:57:28 17° 268° (W) 15:00:07 437.445
Gurwin Techsat 1B 24 Sep 14:59:02 15:04:17 61° 259° (WSW) 15:09:34 435.225
Oscar 19 24 Sep 15:07:40 15:12:24 35° 263° (W) 15:17:09 437.125/150
RS-15 24 Sep 15:07:46 15:19:55 86° 54° (NE) 15:31:21 29.354- 29.394
UKube-1 24 Sep 15:12:15 15:16:19 40° 99° (E) 15:20:23 .
NO-84 24 Sep 15:19:20 15:22:49 36° 332° (NNW) 15:26:01 435.350 FM
DX 1 24 Sep 15:20:54 15:25:15 78° 104° (ESE) 15:29:35 434.975-435.025
50 SAT 24 Sep 15:26:44 15:29:59 51° 286° (WNW) 15:33:11 437.505
PCSat 24 Sep 15:35:39 15:40:59 63° 117° (ESE) 15:46:21 145.827
AO-7 24 Sep 15:43:58 15:52:12 68° 66° (ENE) 16:00:27 .
SPROUT 24 Sep 15:45:14 15:47:20 13° 299° (WNW) 15:49:26 437.525
ITUPSAT 1 24 Sep 15:49:25 15:51:51 14° 89° (E) 15:54:17 437.325
VELOX 1 24 Sep 15:52:33 15:55:14 16° 299° (WNW) 15:57:56 145.980
ITAMSAT 1 24 Sep 16:13:49 16:18:58 74° 73° (ENE) 16:24:09 435.822/435.867
BEESAT 24 Sep 16:24:04 16:28:18 30° 96° (E) 16:32:30 436.000
YUBILEINY 24 Sep 16:29:39 16:32:19 12° 311° (NW) 16:35:00 435.215
SO-50 24 Sep 16:35:42 16:39:24 24° 320° (NW) 16:43:07 436.795
MOZHAYETS 4 24 Sep 16:46:53 16:51:26 52° 100° (E) 16:55:56
UKube-1 24 Sep 16:48:50 16:52:05 21° 296° (WNW) 16:55:20 .
NO-84 24 Sep 16:58:43 17:00:55 16° 352° (N) 17:03:01 435.350 FM
DX 1 24 Sep 16:59:01 17:00:49 12° 301° (WNW) 17:02:38 434.975-435.025
CUBESAT XI-V 24 Sep 17:16:18 17:20:01 23° 93° (E) 17:23:42 437.345
PCSat 24 Sep 17:20:17 17:24:47 26° 317° (NW) 17:29:19 145.827
RS-15 24 Sep 17:21:34 17:30:50 28° 259° (WSW) 17:39:46 29.354- 29.394
ITUPSAT 1 24 Sep 17:25:22 17:30:11 73° 288° (WNW) 17:34:59 437.325
AO-7 24 Sep 17:38:34 17:45:33 29° 266° (W) 17:52:35 .
DOVE 4 24 Sep 17:40:01 17:44:11 45° 72° (ENE) 17:48:12 437.250
ITAMSAT 1 24 Sep 17:56:05 17:58:59 15° 271° (W) 18:01:55 435.822/435.867
HO-68 24 Sep 17:58:34 18:02:54 17° 50° (NE) 18:07:15 435.675
XW-2D 24 Sep 18:00:17 18:03:10 21° 66° (ENE) 18:06:04 145.860 - 145.880
BEESAT 24 Sep 18:01:46 18:06:03 33° 293° (WNW) 18:10:19 436.000
CUTE-I 24 Sep 18:09:48 18:14:23 30° 64° (ENE) 18:18:57 437.470
XW-2F 24 Sep 18:11:30 18:14:38 25° 68° (ENE) 18:17:48 145.980 - 146.000
XW-2B 24 Sep 18:12:16 18:15:30 26° 68° (ENE) 18:18:45 145.730 - 145.750
MOZHAYETS 4 24 Sep 18:24:54 18:28:12 20° 297° (WNW) 18:31:29
NUDT-PHONESAT 24 Sep 18:31:03 18:34:22 30° 70° (ENE) 18:37:42 437.300
XW-2C 24 Sep 18:33:08 18:36:49 45° 72° (ENE) 18:40:32 145.795 - 145.815
KKS-1 24 Sep 18:36:13 18:40:34 51° 100° (E) 18:44:54 437.445
NO-84 24 Sep 18:36:57 18:39:17 18° 14° (NNE) 18:41:31 435.350 FM
LilacSat-2 24 Sep 18:46:32 18:50:23 71° 76° (ENE) 18:54:17 437.200
CUBESAT XI-V 24 Sep 18:53:12 18:57:31 39° 291° (WNW) 19:01:47 437.345
STARS 24 Sep 18:57:40 19:01:45 36° 98° (E) 19:05:48 437.465
KAITUO 1B 24 Sep 19:00:45 19:04:32 73° 75° (ENE) 19:08:21 145.475/437.950
SEEDS 24 Sep 19:02:41 19:05:02 15° 62° (ENE) 19:07:23 437.485
ITUPSAT 1 24 Sep 19:06:19 19:07:09 10° 305° (NW) 19:07:58 437.325
DOVE 4 24 Sep 19:19:11 19:22:06 17° 268° (W) 19:24:57 437.250
BEESAT 3 24 Sep 19:19:11 19:19:50 10° 108° (ESE) 19:20:30 437.485
AAUSAT CUBESAT 2 24 Sep 19:23:26 19:24:30 11° 60° (ENE) 19:25:35 437.432
CUTE 1.7 + AOD 2 24 Sep 19:30:49 19:34:52 42° 71° (ENE) 19:38:56 437.475
XW-2D 24 Sep 19:33:40 19:37:08 32° 263° (W) 19:40:40 145.860 - 145.880
HO-68 24 Sep 19:42:22 19:49:29 75° 70° (ENE) 19:56:39 435.675
XW-2F 24 Sep 19:45:24 19:48:40 26° 265° (W) 19:51:57 145.980 - 146.000
XW-2B 24 Sep 19:46:25 19:49:37 25° 265° (W) 19:52:51 145.730 - 145.750
CUTE-I 24 Sep 19:49:19 19:54:17 40° 262° (W) 19:59:16 437.470
Tancredo 1 24 Sep 19:49:54 19:52:10 24° 140° (SE) 19:54:26 437.200
XW-2A 24 Sep 20:01:24 20:04:32 34° 71° (ENE) 20:07:41 145.665 - 145.685
NUDT-PHONESAT 24 Sep 20:05:26 20:08:17 20° 267° (W) 20:11:08 437.300
XW-2C 24 Sep 20:09:05 20:11:14 14° 269° (W) 20:13:25 145.795 - 145.815
CUBEBUG 2 24 Sep 20:11:22 20:15:34 64° 74° (ENE) 20:19:59 437.445
KKS-1 24 Sep 20:13:41 20:16:45 19° 298° (WNW) 20:19:48 437.445
NO-84 24 Sep 20:14:03 20:17:09 70° 35° (NE) 20:20:03 435.350 FM
UWE-3 24 Sep 20:16:01 20:20:06 42° 71° (ENE) 20:24:20 435.000/436.395/437.385
AO-85 24 Sep 20:22:04 20:24:19 15° 111° (ESE) 20:26:37 145.980
STARS 24 Sep 20:34:21 20:37:55 25° 295° (WNW) 20:41:29 437.465
SEEDS 24 Sep 20:36:02 20:40:14 61° 260° (W) 20:44:26 437.485
ISS 24 Sep 20:45:40 20:47:49 16° 134° (SE) 20:49:58 437.550
STRAND 1 24 Sep 20:49:21 20:54:16 44° 99° (E) 20:59:10 437.568
BEESAT 3 24 Sep 20:52:44 20:56:45 84° 306° (NW) 21:00:49 437.485
AAUSAT CUBESAT 2 24 Sep 20:55:09 20:59:19 83° 256° (WSW) 21:03:30 437.432
Oscar 11 24 Sep 20:55:13 20:59:16 39° 70° (ENE) 21:03:20 .
AO-73 24 Sep 20:57:12 21:01:28 57° 73° (ENE) 21:05:53 145.935
ZACube-1 24 Sep 21:00:43 21:05:03 70° 74° (ENE) 21:09:31 437.345
BEESAT 2 24 Sep 21:03:04 21:06:50 40° 118° (ESE) 21:10:39 435.950
CUTE 1.7 + AOD 2 24 Sep 21:07:49 21:10:53 19° 268° (W) 21:13:58 437.475
nSIGHT-1 24 Sep 21:21:45 21:24:46 36° 141° (SE) 21:27:47 .
Tancredo 1 24 Sep 21:23:58 21:26:32 41° 338° (NNW) 21:29:07 437.200
Max Valier Satellite 24 Sep 21:28:51 21:30:54 14° 64° (ENE) 21:32:57 145.860
HO-68 24 Sep 21:32:31 21:37:53 22° 269° (W) 21:43:18 435.675
XW-2A 24 Sep 21:35:24 21:37:23 15° 268° (W) 21:39:23 145.665 - 145.685
SO-50 24 Sep 21:43:53 21:46:54 17° 34° (NE) 21:49:56 436.795
CUBEBUG 2 24 Sep 21:50:45 21:52:42 13° 272° (W) 21:54:41 437.445
NO-84 24 Sep 21:53:08 21:54:00 11° 234° (SW) 21:54:51 435.350 FM
UWE-3 24 Sep 21:53:37 21:56:46 20° 269° (W) 22:00:01 435.000/436.395/437.385
AO-85 24 Sep 22:00:27 22:04:15 53° 309° (NW) 22:08:10 145.980
FO-29 24 Sep 22:06:13 22:11:06 31° 96° (E) 22:16:24 435.910
DELFI C3 24 Sep 22:12:39 22:16:32 60° 74° (ENE) 22:20:25 145.870
ISS 24 Sep 22:20:40 22:23:56 77° 330° (NNW) 22:27:14 437.550
EO-88 24 Sep 22:25:02 22:28:32 45° 72° (ENE) 22:32:05 145.990 - 145.960
STRAND 1 24 Sep 22:28:59 22:33:13 27° 296° (WNW) 22:37:27 437.568
Oscar 11 24 Sep 22:32:12 22:35:31 21° 267° (W) 22:38:53 .
BEESAT 3 24 Sep 22:32:41 22:34:57 14° 325° (NW) 22:37:13 437.485
UNISAT 6 24 Sep 22:35:08 22:38:23 18° 91° (E) 22:41:38 437.425
AO-73 24 Sep 22:35:33 22:38:06 15° 271° (W) 22:40:41 145.935
YUBILEINY 24 Sep 22:36:07 22:42:19 21° 59° (ENE) 22:48:31 435.215
PCSat 24 Sep 22:39:01 22:42:38 18° 36° (NE) 22:46:13 145.827
ZACube-1 24 Sep 22:40:02 22:41:51 12° 272° (W) 22:43:41 437.345
BEESAT 2 24 Sep 22:41:19 22:44:43 25° 317° (NW) 22:48:09 435.950
TIGRISAT 24 Sep 22:57:53 23:01:55 28° 95° (E) 23:05:56 435.000
nSIGHT-1 24 Sep 22:57:59 23:01:04 41° 340° (NNW) 23:04:11 .
Tancredo 1 24 Sep 22:59:23 23:01:28 19° 357° (N) 23:03:32 437.200
Max Valier Satellite 24 Sep 23:00:45 23:04:20 47° 261° (W) 23:07:58 145.860
PRISM 24 Sep 23:09:59 23:12:50 18° 93° (E) 23:15:40 437.425
ESTCUBE 1 24 Sep 23:15:18 23:18:45 22° 64° (ENE) 23:22:13 437.505/2401.250
LO-87 24 Sep 23:17:48 23:20:44 25° 69° (ENE) 23:23:41 145.935 - 145.965
SO-50 24 Sep 23:23:26 23:28:02 84° 52° (NE) 23:32:41 436.795
AO-85 24 Sep 23:44:53 23:45:37 10° 332° (NNW) 23:46:22 145.980
DELFI C3 24 Sep 23:50:17 23:51:40 12° 271° (W) 23:53:03 145.870
FO-29 24 Sep 23:51:12 23:56:17 41° 292° (WNW) 00:01:53 435.910
ISS 24 Sep 23:57:53 00:00:46 27° 351° (N) 00:03:40 437.550
EO-88 25 Sep 00:00:37 00:02:26 13° 269° (W) 00:04:17 145.990 - 145.960
UNISAT 6 25 Sep 00:10:49 00:15:22 53° 288° (WNW) 00:19:56 437.425
PCSat 25 Sep 00:21:30 00:26:58 76° 58° (ENE) 00:32:22 145.827
AIST 2D 25 Sep 00:28:48 00:31:56 29° 96° (E) 00:35:02 435.315
YUBILEINY 25 Sep 00:31:44 00:40:31 86° 82° (E) 00:49:18 435.215
Tancredo 1 25 Sep 00:34:03 00:36:28 28° 17° (NNE) 00:38:53 437.200
TIGRISAT 25 Sep 00:34:23 00:38:37 34° 291° (WNW) 00:42:51 435.000
nSIGHT-1 25 Sep 00:35:12 00:37:56 24° 360° (N) 00:40:42 .
POLYITAN 1 25 Sep 00:44:03 00:47:06 19° 92° (E) 00:50:09 437.675
PRISM 25 Sep 00:44:28 00:48:16 40° 290° (WNW) 00:52:04 437.425
DX 1 25 Sep 00:46:00 00:46:48 10° 57° (ENE) 00:47:36 434.975-435.025
EO-79 25 Sep 00:47:48 00:51:02 20° 93° (E) 00:54:15 145.935-145.965
ESTCUBE 1 25 Sep 00:50:58 00:55:16 43° 261° (W) 00:59:37 437.505/2401.250
LO-87 25 Sep 00:51:19 00:54:06 22° 266° (W) 00:56:55 145.935 - 145.965
QB50P2 25 Sep 01:01:29 01:05:19 31° 96° (E) 01:09:08 145.880/145.840
SPROUT 25 Sep 01:02:28 01:06:39 66° 74° (ENE) 01:10:53 437.525
SO-50 25 Sep 01:05:50 01:07:51 13° 251° (WSW) 01:09:53 436.795
VELOX 1 25 Sep 01:13:38 01:17:59 66° 74° (ENE) 01:22:22 145.980
ISS 25 Sep 01:34:57 01:37:53 29° 11° (NNE) 01:40:49 437.550
NANOSAT C BR1 25 Sep 01:35:14 01:39:28 58° 101° (E) 01:43:39 145.865
50 SAT 25 Sep 01:57:50 02:01:06 65° 74° (ENE) 02:04:23 437.505
AIST 2D 25 Sep 02:02:24 02:04:56 19° 293° (WNW) 02:07:27 435.315
DUCHIFAT 1 25 Sep 02:02:52 02:07:09 81° 285° (WNW) 02:11:24 145.980
PCSat 25 Sep 02:06:19 02:09:41 17° 255° (WSW) 02:13:03 145.827
UKube-1 25 Sep 02:08:15 02:12:20 44° 70° (ENE) 02:16:26 .
Tancredo 1 25 Sep 02:08:25 02:11:02 47° 215° (SW) 02:13:38 437.200
nSIGHT-1 25 Sep 02:11:42 02:14:50 40° 20° (NNE) 02:17:56 .
M-CUBED/EXP-1 PRIME 25 Sep 02:13:27 02:16:20 27° 102° (ESE) 02:19:09 437.505
